Temp
45 43 39 43 41 42 41 39 37 36 38 38 37 38 44 43 40 41 41 41 40 40 42 42 42 42 42 43 43 43 44 43 45 44 43 43 40 39 39 40 39 39 39 40
40 38 43 44 44 43 41 39 36 36 38 38 35 39 43 43 43 44 46 44 43 39 39 39 40 41 42 42 42 42 42 42 43 43 42 42 41 40 39 38 38 38 38 38
37 38 43 43 39 41 38 38 37 39 37 35 35 38 42 46 42 45 47 46 44 41 39 39 39 40 40 40 41 41 41 41 41 42 42 41 40 39 37 36 36 36 37 37
37 39 40 38 38 41 37 42 41 38 37 33 36 31 40 47 47 46 45 43 41 40 41 40 39 38 39 39 40 40 41 41 41 41 39 38 37 35 35 35 35 35 36 36
36 35 37 38 38 41 38 41 39 37 33 31 32 28 39 42 45 45 44 44 39 40 40 39 39 40 39 39 39 39 39 39 39 39 38 36 34 34 35 35 34 34 35 35
35 37 36 35 37 39 41 38 36 32 31 24 30 30 35 39 42 43 44 42 39 37 40 40 40 40 38 38 38 39 39 38 38 38 37 37 35 34 34 34 33 33 34 34
34 34 35 37 37 38 38 36 26 24 22 26 30 27 39 41 43 42 40 40 37 37 37 37 37 37 37 37 37 38 38 36 37 37 36 36 35 34 34 33 33 32 32 32
28 28 34 36 35 36 35 36 29 22 22 26 30 27 39 41 42 40 38 36 36 36 37 37 38 38 37 37 37 38 37 35 36 36 35 35 35 34 33 33 33 32 32 32
28 28 34 35 35 35 34 32 35 25 14 23 30 35 42 40 40 39 38 36 34 35 36 36 37 37 37 37 37 37 36 36 36 35 34 34 34 33 32 32 33 33 34 34
36 27 31 34 34 35 34 37 30 27 18 17 26 29 34 38 40 39 37 36 35 35 35 36 37 37 38 38 38 37 37 35 35 34 35 34 33 33 33 33 32 32 33 33
37 34 29 32 31 30 31 30 31 32 30 23 21 30 37 38 38 38 38 39 36 35 36 36 37 38 38 38 37 36 36 35 34 34 34 33 33 33 33 33 32 32 32 32
38 33 26 28 30 32 31 31 33 28 25 25 27 30 39 39 37 38 40 40 37 36 36 36 37 36 36 36 36 36 35 35 35 34 33 33 33 33 32 32 32 32 32 32
39 30 22 26 29 30 30 33 34 32 31 25 24 31 39 37 37 40 40 40 39 36 35 35 35 35 36 36 36 36 35 35 34 34 33 33 32 32 31 31 31 32 31 31
42 30 30 28 30 30 28 30 32 32 24 27 28 33 39 41 40 40 41 41 39 37 35 34 35 36 37 37 36 36 35 35 34 34 33 32 31 31 31 31 31 31 31 31
36 27 30 30 30 30 32 31 29 29 32 29 31 32 38 40 40 40 41 40 38 37 34 35 35 36 37 36 37 36 36 35 35 33 32 32 32 31 31 30 30 30 31 31
34 29 29 23 30 29 28 30 30 31 32 29 32 32 42 44 39 38 39 39 38 38 37 37 37 37 37 37 37 37 35 35 34 34 32 32 31 30 30 30 30 30 30 30
34 24 24 19 23 27 23 27 30 30 30 33 28 37 40 37 39 39 40 40 39 39 39 37 37 38 39 38 39 37 36 36 34 33 32 32 31 30 30 30 30 29 29 29
32 27 18 15 16 14 31 30 33 33 33 34 34 37 38 39 40 40 41 41 40 41 41 40 40 40 40 41 39 39 36 35 34 33 31 31 31 30 30 29 29 29 29 28
37 30 23 19 9 23 33 30 30 31 31 35 36 36 38 37 36 38 42 41 40 41 41 41 41 42 41 40 40 38 35 34 34 32 32 31 31 29 29 29 28 28 28 28
33 32 25 19 12 13 27 31 34 35 25 35 36 36 36 35 31 35 41 41 40 41 40 40 41 40 40 40 39 37 34 34 33 33 32 32 31 31 29 29 29 29 29 29
28 28 26 15 11 19 31 33 33 23 28 34 36 37 35 33 36 40 39 39 40 39 39 40 39 39 40 39 37 35 35 34 35 34 33 31 31 31 30 30 29 29 29 29
26 25 23 22 17 18 33 32 30 32 33 35 35 34 35 35 36 37 37 37 38 38 39 38 38 36 35 35 36 34 34 36 34 33 32 30 30 30 29 28 28 28 28 26
20 25 22 26 27 31 31 32 33 34 33 34 34 35 35 35 34 34 35 36 36 36 35 36 35 35 34 33 35 34 35 34 32 30 30 29 29 29 29 28 26 26 26 26
25 27 23 28 30 30 31 32 33 34 35 36 35 34 34 33 34 33 33 34 34 34 35 35 35 34 33 30 32 34 32 33 31 30 29 29 28 28 28 28 28 28 26 25
25 28 25 24 29 29 30 32 33 34 35 34 34 34 34 33 33 33 33 33 34 35 34 34 33 32 30 29 30 30 31 32 31 31 29 28 28 28 27 28 28 28 29 29
23 24 25 25 31 32 33 33 35 34 33 34 33 32 34 34 33 33 32 33 32 33 32 31 30 30 29 27 28 29 31 32 31 30 27 27 28 27 27 27 27 33 32 32
MSLP
1017.26 1018.06 1018.36 1018.40 1018.70 1018.66 1019.11 1019.86 1020.33 1020.87 1021.56 1021.99 1022.07 1021.74 1020.84 1021.36 1021.79 1021.69 1021.69 1022.01 1022.48 1023.45 1024.31 1025.02 1025.44 1025.72 1025.91 1026.06 1026.21 1026.26 1026.22 1026.18 1026.02 1026.33 1026.57 1026.77 1027.31 1027.41 1027.47 1027.15 1026.92 1026.49 1025.99 1025.51
1018.19 1018.21 1018.34 1018.39 1018.70 1018.83 1019.02 1019.53 1020.31 1020.97 1021.64 1022.14 1021.95 1021.02 1020.16 1019.80 1019.43 1018.97 1019.23 1020.29 1021.60 1023.07 1024.00 1024.78 1025.30 1025.72 1025.82 1025.95 1026.21 1026.35 1026.41 1026.46 1026.32 1026.37 1026.80 1027.08 1027.60 1027.92 1028.05 1027.81 1027.55 1027.28 1026.78 1026.33
1018.48 1018.75 1018.48 1018.56 1019.02 1019.04 1019.23 1019.60 1020.14 1020.89 1021.68 1022.27 1022.20 1020.83 1019.52 1018.04 1017.90 1017.96 1019.17 1020.01 1020.99 1022.02 1023.28 1024.29 1024.97 1025.51 1025.86 1026.13 1026.36 1026.47 1026.54 1026.54 1026.58 1026.63 1026.93 1027.13 1027.65 1028.13 1028.30 1028.16 1028.01 1027.94 1027.42 1026.97
1018.96 1019.04 1019.02 1019.06 1019.27 1019.28 1019.70 1019.44 1020.03 1021.00 1021.90 1022.83 1022.59 1021.42 1019.36 1017.72 1017.54 1018.03 1018.41 1019.19 1020.02 1021.14 1022.34 1023.42 1024.34 1025.00 1025.59 1025.95 1026.42 1026.66 1026.80 1026.87 1026.87 1026.67 1027.20 1027.16 1027.75 1028.50 1028.88 1028.90 1028.90 1028.57 1028.08 1027.72
1019.53 1019.60 1019.64 1019.60 1019.39 1019.35 1019.89 1020.07 1020.84 1021.59 1022.54 1023.06 1023.10 1022.50 1018.95 1018.08 1017.66 1018.24 1018.60 1019.01 1019.84 1020.73 1021.43 1022.38 1023.34 1024.18 1025.22 1025.79 1026.27 1026.65 1026.90 1027.01 1027.15 1027.02 1027.54 1027.66 1028.02 1028.64 1028.99 1029.20 1029.04 1028.77 1028.66 1028.42
1020.08 1020.10 1020.17 1020.18 1020.23 1020.04 1020.31 1020.81 1021.92 1022.73 1023.27 1023.61 1023.09 1022.67 1019.62 1018.44 1018.51 1018.72 1019.11 1019.81 1020.35 1021.17 1021.88 1022.63 1023.51 1024.16 1025.10 1025.91 1026.57 1026.83 1027.01 1027.23 1027.50 1027.43 1027.91 1028.10 1028.04 1028.65 1029.06 1029.20 1029.20 1029.09 1029.06 1028.89
1020.53 1020.75 1020.79 1020.59 1020.70 1020.75 1020.68 1021.22 1022.66 1023.76 1024.14 1023.93 1023.23 1022.90 1019.24 1018.54 1018.49 1019.15 1019.88 1020.20 1020.86 1021.62 1022.13 1022.80 1023.66 1024.42 1024.91 1025.51 1026.07 1026.56 1026.95 1027.37 1027.72 1027.95 1028.42 1028.75 1028.48 1029.10 1029.39 1029.47 1029.52 1029.52 1029.49 1029.41
1020.40 1021.46 1021.34 1021.30 1020.95 1020.65 1021.09 1021.13 1021.78 1023.04 1024.37 1024.09 1023.55 1021.85 1018.78 1018.43 1018.65 1019.24 1020.03 1020.70 1021.35 1022.15 1022.82 1023.36 1023.70 1024.15 1024.64 1025.21 1025.70 1026.22 1026.69 1027.28 1027.82 1028.16 1028.59 1029.27 1029.41 1029.90 1030.29 1030.16 1030.00 1029.85 1029.77 1029.92
1019.86 1021.26 1021.92 1021.88 1021.64 1021.54 1021.58 1021.53 1021.64 1022.91 1024.73 1024.11 1022.40 1020.40 1018.47 1018.43 1018.84 1019.38 1020.20 1021.04 1021.61 1022.01 1022.36 1023.10 1023.81 1024.14 1024.59 1025.18 1025.69 1026.19 1026.66 1027.27 1027.81 1028.20 1028.54 1029.04 1029.22 1029.51 1029.94 1030.20 1030.62 1030.86 1030.44 1030.23
1018.83 1020.98 1022.33 1022.28 1022.13 1021.85 1021.59 1021.55 1021.97 1022.56 1023.77 1023.64 1022.29 1020.81 1018.96 1018.58 1018.82 1019.56 1020.26 1020.98 1021.66 1022.08 1022.38 1022.48 1022.89 1023.73 1024.64 1025.21 1025.64 1026.24 1026.64 1027.08 1027.80 1028.22 1028.47 1028.75 1029.12 1029.35 1029.78 1029.92 1030.18 1030.48 1030.82 1030.82
1018.36 1019.47 1022.60 1022.67 1022.42 1022.18 1022.20 1021.80 1022.02 1022.18 1022.50 1022.54 1022.28 1020.13 1018.32 1018.38 1018.80 1019.41 1020.07 1020.43 1021.04 1021.49 1021.86 1022.26 1022.60 1023.10 1023.78 1024.79 1025.58 1026.19 1026.77 1027.35 1027.96 1028.20 1028.71 1029.03 1029.30 1029.39 1029.84 1030.00 1030.31 1030.41 1030.37 1030.80
1018.23 1019.55 1021.56 1022.08 1022.27 1022.30 1022.16 1021.80 1021.60 1021.97 1022.69 1022.69 1022.01 1019.59 1018.03 1018.22 1018.72 1019.24 1019.68 1020.11 1020.52 1021.06 1021.61 1022.21 1022.81 1023.27 1023.87 1024.40 1025.13 1025.81 1026.49 1027.16 1027.92 1028.39 1028.59 1029.19 1029.53 1029.61 1029.95 1030.13 1030.46 1030.45 1030.54 1030.86
1018.15 1019.59 1021.35 1022.14 1022.59 1022.39 1022.17 1021.81 1021.63 1021.72 1021.96 1022.18 1021.68 1019.80 1018.37 1018.54 1018.69 1018.89 1019.48 1019.79 1020.24 1020.74 1021.36 1022.02 1022.57 1023.07 1023.56 1024.19 1024.81 1025.42 1026.03 1026.66 1027.39 1028.08 1028.59 1028.96 1029.48 1029.79 1030.11 1030.29 1030.57 1030.59 1030.63 1030.94
1018.00 1019.37 1020.27 1020.90 1021.00 1021.30 1021.89 1021.68 1021.85 1021.67 1022.15 1021.68 1020.76 1019.53 1018.47 1018.18 1018.65 1018.65 1019.00 1019.27 1019.60 1020.05 1020.71 1021.40 1021.99 1022.25 1022.72 1023.35 1024.13 1024.88 1025.59 1026.10 1026.74 1027.42 1028.23 1028.67 1029.06 1029.60 1029.97 1030.31 1030.60 1030.64 1030.79 1031.04
1018.88 1019.99 1020.68 1021.05 1021.26 1021.45 1021.59 1021.42 1021.60 1021.84 1021.33 1021.30 1020.49 1019.80 1018.62 1018.26 1018.45 1018.72 1019.05 1019.19 1019.33 1019.60 1020.16 1020.42 1020.88 1021.43 1022.06 1022.64 1023.24 1023.98 1024.77 1025.54 1026.32 1026.91 1027.64 1028.01 1028.75 1029.41 1029.89 1030.49 1030.67 1030.81 1030.94 1031.12
1019.75 1020.81 1021.37 1022.02 1022.00 1021.79 1021.65 1021.38 1021.47 1021.41 1021.08 1020.69 1020.28 1019.34 1018.16 1017.81 1018.31 1018.71 1019.07 1019.16 1019.22 1019.18 1019.38 1019.58 1019.97 1020.53 1020.98 1021.61 1022.36 1023.21 1024.20 1025.10 1025.79 1026.43 1027.35 1027.92 1028.37 1029.01 1029.62 1030.11 1030.62 1030.88 1031.04 1031.22
1020.23 1021.22 1022.29 1023.20 1023.00 1022.35 1021.29 1019.99 1020.18 1020.20 1019.79 1019.43 1019.44 1018.10 1017.77 1018.19 1018.46 1018.65 1018.88 1019.02 1019.03 1018.83 1018.64 1018.76 1018.91 1019.21 1019.79 1020.31 1021.03 1022.05 1023.04 1024.39 1025.28 1026.15 1027.07 1027.95 1028.49 1028.83 1029.44 1029.84 1030.20 1030.58 1031.02 1031.21
1020.51 1021.27 1022.29 1023.87 1023.93 1022.68 1019.48 1018.73 1018.57 1018.74 1018.68 1018.46 1018.17 1017.71 1017.99 1018.47 1018.43 1018.69 1018.88 1018.77 1018.51 1018.28 1018.02 1017.88 1017.95 1018.31 1018.75 1019.48 1020.41 1021.38 1022.45 1023.49 1024.68 1025.48 1026.34 1027.29 1028.10 1028.61 1029.33 1029.85 1030.07 1030.39 1030.81 1030.96
1020.33 1021.38 1022.84 1023.83 1023.96 1021.30 1018.79 1018.46 1018.27 1018.30 1018.26 1017.75 1017.86 1017.90 1017.96 1018.05 1018.44 1018.72 1018.80 1018.85 1018.64 1018.25 1017.74 1017.23 1016.80 1017.24 1018.09 1018.90 1019.76 1021.00 1022.18 1023.22 1023.93 1024.72 1025.61 1026.38 1027.34 1028.19 1028.84 1029.45 1029.97 1030.33 1030.82 1030.85
1020.76 1021.42 1022.15 1023.57 1023.38 1021.73 1018.77 1017.36 1017.05 1017.29 1018.08 1017.68 1017.56 1017.96 1018.05 1018.23 1019.10 1019.49 1019.14 1018.99 1018.74 1018.32 1017.72 1017.08 1016.49 1016.68 1017.43 1018.28 1019.48 1020.38 1021.35 1022.31 1022.96 1023.56 1024.69 1025.85 1026.68 1027.43 1028.03 1028.60 1029.40 1029.99 1030.69 1030.79
1020.91 1021.25 1021.38 1022.23 1022.20 1020.19 1018.00 1017.38 1017.50 1018.10 1018.78 1018.02 1017.82 1018.31 1018.68 1019.13 1019.67 1019.85 1019.75 1019.35 1019.08 1018.64 1018.01 1017.09 1016.66 1017.02 1017.19 1018.07 1019.13 1020.08 1020.95 1021.16 1021.69 1023.01 1024.10 1025.23 1026.08 1026.94 1027.52 1028.25 1029.14 1029.71 1030.34 1030.79
1020.63 1020.86 1021.00 1021.45 1021.25 1020.00 1017.54 1018.01 1018.23 1018.08 1018.42 1018.41 1018.54 1018.90 1019.21 1019.33 1019.58 1019.69 1019.61 1019.50 1019.18 1018.68 1017.92 1017.56 1017.24 1017.63 1017.81 1018.21 1018.87 1019.72 1020.21 1020.81 1021.95 1022.59 1023.50 1024.83 1025.30 1026.55 1027.38 1027.86 1028.76 1029.46 1030.03 1030.41
1020.31 1019.55 1019.77 1019.76 1019.06 1018.40 1018.11 1018.06 1018.29 1018.21 1018.43 1019.04 1019.04 1019.31 1019.43 1019.64 1019.90 1019.98 1020.02 1019.66 1019.28 1018.78 1018.45 1018.07 1017.92 1017.85 1018.05 1018.45 1018.88 1019.43 1019.63 1020.37 1021.79 1022.17 1023.38 1024.34 1025.19 1025.93 1026.80 1027.45 1028.29 1029.14 1029.59 1029.78
1020.06 1019.16 1019.06 1019.31 1019.02 1018.95 1018.76 1019.04 1018.79 1018.70 1019.10 1019.26 1019.23 1019.30 1019.62 1019.95 1020.07 1020.07 1019.95 1019.67 1019.28 1018.68 1018.32 1018.19 1018.12 1018.12 1018.28 1018.38 1018.69 1018.96 1019.40 1020.14 1020.93 1022.00 1022.63 1023.70 1024.95 1025.55 1026.32 1026.94 1027.63 1028.09 1028.76 1029.17
1020.11 1019.32 1019.12 1019.02 1019.20 1019.57 1019.73 1019.38 1019.13 1019.03 1019.10 1019.46 1019.62 1019.73 1019.89 1020.14 1020.14 1020.21 1020.07 1019.76 1019.22 1018.70 1018.31 1018.25 1018.32 1018.11 1018.14 1018.23 1018.50 1018.78 1018.98 1019.63 1020.44 1021.25 1022.43 1023.57 1024.31 1025.00 1025.69 1026.16 1026.39 1026.84 1027.34 1027.42
1019.96 1019.23 1019.11 1018.66 1018.53 1018.62 1019.04 1019.34 1019.27 1019.31 1019.48 1019.62 1019.77 1020.17 1020.07 1020.12 1020.12 1020.02 1020.07 1019.57 1019.22 1018.75 1018.32 1018.22 1018.11 1017.95 1017.71 1017.95 1018.16 1018.48 1018.38 1018.83 1019.81 1020.71 1021.54 1022.38 1023.52 1024.36 1024.95 1025.50 1026.02 1026.37 1026.81 1027.10
Wind_Speed
3 4 7 9 5 5 8 4 3 2 1 3 6 10 16 7 7 12 14 14 15 12 5 6 6 6 5 4 4 3 4 3 2 2 2 3 4 5 7 7 12 12 11 12
7 5 4 6 5 5 4 4 4 2 2 3 4 13 12 8 10 13 18 15 14 9 9 8 8 6 6 5 4 4 4 4 3 3 2 3 2 3 4 6 9 12 12 13
7 1 4 5 4 6 3 5 4 3 2 1 5 9 6 6 6 5 3 3 9 14 14 12 10 8 5 5 4 4 4 4 4 4 3 4 3 2 3 7 7 10 11 12
3 0 4 3 4 4 4 4 5 7 4 3 3 6 7 6 10 6 3 7 9 13 13 12 12 9 8 7 5 5 4 5 5 6 3 5 3 2 3 4 4 7 11 12
6 3 3 3 2 3 3 3 5 4 5 4 3 3 10 5 7 5 6 5 7 12 16 17 16 12 8 7 6 5 6 6 5 7 6 6 8 5 3 3 5 8 9 11
3 2 2 2 2 2 8 7 7 5 3 2 2 4 8 2 1 6 4 8 5 8 9 11 9 10 8 7 6 6 6 6 5 7 5 6 10 7 5 5 5 6 6 7
3 2 1 1 5 2 1 5 2 5 3 4 2 3 12 4 6 2 8 9 2 4 7 10 12 11 11 10 9 7 7 7 6 7 6 5 9 7 7 5 5 6 5 6
7 3 4 2 1 6 4 4 7 8 4 3 3 6 6 4 3 2 3 3 4 5 4 7 11 11 11 11 10 8 8 8 7 7 8 6 7 5 4 5 5 5 5 5
5 2 3 3 2 2 4 4 2 8 4 4 3 7 5 2 5 5 5 2 3 6 8 9 8 10 11 11 10 9 9 7 7 8 8 7 7 8 6 6 5 4 4 5
6 5 3 3 2 2 0 3 4 3 3 3 4 6 5 3 5 7 5 0 5 6 7 10 12 12 9 9 8 8 8 9 8 8 7 8 8 8 7 7 7 6 5 5
5 5 1 1 4 5 1 1 4 3 3 5 3 7 6 5 0 2 5 4 7 9 10 10 11 11 11 9 8 8 8 8 8 8 7 8 7 8 7 7 6 6 6 5
3 6 5 4 1 1 1 3 5 5 5 1 2 8 4 4 1 1 5 6 6 7 7 7 9 10 10 11 10 11 9 9 7 7 9 8 7 7 7 7 6 6 7 5
6 0 4 3 1 3 4 4 3 4 3 6 7 7 1 2 3 6 6 7 7 6 6 6 8 10 11 11 11 11 10 9 9 9 8 9 8 7 7 7 6 6 7 5
5 3 4 6 3 5 5 5 5 4 4 4 5 5 5 6 6 7 8 8 8 6 8 8 9 11 12 12 12 11 11 11 11 10 9 9 9 8 8 7 6 6 6 6
3 4 3 1 3 0 2 3 7 7 5 6 3 7 4 6 5 6 6 8 9 7 7 11 12 12 12 13 13 12 11 12 12 12 11 11 9 8 8 7 7 6 6 5
3 3 3 3 2 3 4 6 6 7 5 7 9 16 8 7 2 4 7 7 9 9 8 10 11 12 14 15 15 13 13 12 12 12 11 10 10 10 9 8 8 6 6 5
5 6 4 4 4 4 9 10 14 7 6 8 10 11 5 2 5 4 7 6 7 8 8 9 13 15 14 16 16 16 15 13 13 12 10 10 10 11 9 9 9 8 7 6
4 6 3 3 3 4 3 2 4 10 4 11 5 7 2 2 5 5 4 5 8 7 7 7 9 11 13 14 15 14 14 15 14 13 12 12 11 11 9 9 9 8 7 7
3 4 3 6 4 9 10 7 9 9 1 5 13 6 5 2 2 3 6 5 6 8 7 7 8 9 10 13 14 14 13 13 14 14 13 13 13 12 12 11 9 7 7 6
7 1 4 4 6 10 6 3 5 4 2 4 6 5 3 4 5 3 8 8 9 9 7 8 6 6 10 11 13 15 15 16 16 16 15 14 14 13 14 13 11 8 7 8
9 5 7 5 4 9 9 2 4 7 7 3 5 6 6 5 2 4 8 7 6 7 10 8 2 6 9 10 13 14 14 18 16 13 13 13 13 12 12 11 9 9 8 7
9 7 6 3 3 12 5 4 5 5 3 6 6 5 5 4 4 5 7 7 8 10 12 9 5 1 4 9 12 12 15 10 11 13 15 13 14 10 10 12 10 9 9 8
3 7 6 9 6 2 3 6 4 4 7 4 6 3 3 4 3 5 7 9 8 7 7 6 5 1 4 7 10 12 10 11 12 13 13 12 12 12 12 12 11 9 9 8
4 3 3 3 2 7 5 4 5 5 6 5 3 2 1 2 5 7 7 7 8 6 6 5 5 3 5 6 8 8 8 11 14 14 14 13 13 12 11 9 9 10 10 9
3 5 5 3 6 9 1 3 5 4 5 4 2 2 2 3 5 5 6 8 7 7 5 4 5 5 7 6 7 6 9 13 13 13 11 11 10 12 11 11 11 11 10 12
3 5 4 4 4 2 5 4 4 4 5 7 5 4 6 5 7 5 7 7 6 8 6 7 5 5 6 6 7 8 11 14 13 12 11 11 10 10 10 10 8 16 13 18
Wind_Direction
17 104 190 201 173 139 131 156 183 169 149 176 236 271 278 218 222 233 229 219 216 209 183 168 176 167 143 109 100 87 110 76 131 86 37 46 37 25 30 28 26 25 27 25
34 226 203 112 141 120 133 139 193 118 108 172 337 280 261 233 229 214 223 218 208 170 163 174 177 178 174 144 128 108 92 74 85 95 101 95 89 51 34 24 28 25 28 28
153 251 131 114 148 139 171 169 172 163 125 114 326 293 316 275 265 249 329 251 195 188 175 178 176 183 166 156 147 125 111 98 81 106 123 102 88 47 11 23 29 21 28 34
120 35 154 128 179 136 189 188 129 127 102 239 14 281 301 279 290 10 330 208 189 173 176 173 173 174 175 166 150 134 118 102 86 92 96 95 100 110 46 33 22 29 31 34
210 134 149 159 177 173 187 101 104 96 100 74 338 57 269 0 315 5 348 323 210 188 179 177 178 170 170 152 150 139 122 103 96 92 98 111 106 98 77 55 48 44 37 34
98 115 71 100 62 33 152 79 52 53 93 31 286 130 282 236 320 321 324 313 252 185 179 171 159 144 142 140 143 141 135 112 106 104 113 121 113 107 98 72 61 50 41 35
28 20 8 96 89 31 132 103 351 357 24 212 169 74 248 328 301 279 311 321 243 172 155 156 157 159 156 160 161 155 147 127 121 112 106 113 107 103 96 82 71 62 49 40
143 244 177 354 154 176 176 173 162 197 185 177 122 228 256 274 327 57 17 7 107 134 148 172 172 169 166 167 167 161 149 143 138 124 112 98 92 88 75 77 81 77 73 55
129 43 328 28 345 56 186 188 134 101 21 76 240 279 315 319 39 25 25 53 171 177 169 170 174 175 172 173 172 164 154 145 144 134 125 120 119 116 117 104 79 51 60 70
178 91 8 332 324 26 193 156 80 359 149 237 290 284 234 263 337 1 3 276 229 211 192 181 175 173 177 173 166 157 158 153 151 144 142 135 134 125 126 118 106 97 79 66
146 108 319 10 207 186 147 185 54 107 139 157 148 259 206 202 23 333 314 216 220 215 208 197 186 176 170 162 161 161 156 150 158 150 142 141 140 133 127 118 113 111 104 89
210 115 145 197 238 218 261 225 176 135 197 92 110 275 181 217 108 228 272 247 237 226 210 190 182 171 170 171 166 170 166 161 165 156 146 149 145 138 132 129 128 125 111 99
177 266 89 22 13 6 215 202 162 118 91 189 141 254 214 224 236 262 287 285 264 240 212 183 176 183 181 179 177 175 170 165 159 157 157 152 153 148 144 142 139 132 120 111
105 96 151 184 133 114 186 190 198 146 126 182 215 265 291 297 324 337 333 318 290 244 202 195 197 192 185 181 180 177 175 171 164 159 162 162 161 160 153 151 150 138 127 124
90 119 106 107 97 76 240 172 173 196 195 187 221 225 250 257 303 306 311 314 310 279 214 206 202 196 190 186 183 181 176 168 167 167 171 170 158 153 151 156 153 143 135 129
0 123 92 341 2 205 254 225 195 214 235 255 262 281 192 284 226 342 308 320 325 306 248 222 208 197 195 192 190 181 175 176 173 172 176 164 157 156 162 156 157 151 145 140
150 130 109 258 355 346 289 199 194 191 192 170 195 226 217 2 334 313 313 310 310 309 285 223 211 206 200 196 185 186 177 168 172 171 167 170 165 164 171 161 160 158 160 145
148 109 101 168 38 255 272 119 185 202 197 216 251 240 209 276 282 285 281 291 313 318 309 260 223 212 204 192 190 177 171 171 173 175 169 169 171 168 165 168 172 161 164 153
157 121 129 155 194 309 289 193 163 167 250 224 229 252 275 266 66 67 3 329 297 297 289 271 227 206 186 186 178 173 170 172 173 179 177 172 171 170 168 175 177 168 170 155
148 263 126 153 154 212 252 260 176 127 342 342 149 145 126 81 87 267 331 333 321 319 308 309 279 170 169 177 171 172 175 177 187 179 180 175 175 176 177 175 174 173 175 163
184 196 206 186 203 281 246 220 177 108 195 73 103 106 60 93 120 298 314 316 308 309 320 333 349 194 182 158 164 177 182 193 189 174 170 172 177 181 175 168 168 163 166 163
175 178 196 143 121 261 157 84 193 155 71 98 80 71 75 53 345 326 323 324 330 347 348 350 18 176 154 156 167 182 197 187 175 169 166 178 172 172 175 165 164 167 166 164
209 182 179 180 210 26 349 125 102 103 105 91 96 83 60 45 360 320 313 324 320 332 331 333 347 134 165 167 180 192 195 160 168 166 174 181 174 172 175 167 168 169 176 174
257 158 164 104 185 139 125 97 103 105 115 129 113 116 50 311 307 308 310 315 320 325 338 331 331 281 220 194 195 197 158 164 167 180 177 172 179 176 173 173 179 178 184 181
209 138 167 261 79 94 307 139 151 148 136 139 188 186 232 248 279 254 301 305 303 307 319 324 295 265 248 195 198 179 162 161 175 172 170 178 181 182 179 188 187 192 198 190
185 189 175 237 139 132 159 186 192 167 187 198 183 215 224 230 266 281 282 283 282 300 317 316 288 258 246 204 203 190 172 170 171 176 174 176 179 184 187 187 186 208 202 198